Location: Falniów
(50.3639°N, 19.9642°E)
Time: 14:48:11
(UTC+00:00)

Cosmos 1339 Rocket - Visible Passes

Search period start: 11 April 2026 00:00
Search period end: 21 April 2026 00:00
Orbit: 942 x 1004 km, 82.9° (Epoch: 11 April)

Date Brightness Start Highest point End Pass type
(mag) Time Alt. Az. Time Alt. Az. Time Alt. Az.
11 Apr 5.5 19:23:53 10° NNW 19:29:52 46° W 19:35:43 10° SSW visible
12 Apr 4.6 18:03:04 10° N 18:09:18 58° ENE 18:15:24 10° SSE visible
12 Apr 6.3 19:49:01 10° NNW 19:54:15 28° W 19:59:23 10° SW visible
13 Apr 4.6 18:27:43 10° N 18:34:04 88° W 18:40:16 10° S visible
13 Apr 7.0 20:14:36 10° NW 20:18:27 17° WNW 20:22:16 10° WSW visible
14 Apr 5.2 18:52:33 10° NNW 18:58:40 54° W 19:04:38 10° SSW visible
15 Apr 6.1 19:17:36 10° NNW 19:23:05 33° W 19:28:29 10° SSW visible
16 Apr 6.9 19:42:59 10° NW 19:47:22 20° W 19:51:40 10° SW visible
17 Apr 5.0 18:21:15 10° NNW 18:27:26 64° W 18:33:30 10° S visible
17 Apr 7.3 20:09:26 10° NW 20:11:27 12° WNW 20:13:28 10° W visible
18 Apr 5.9 18:46:12 10° NNW 18:51:55 39° W 18:57:32 10° SSW visible
19 Apr 6.8 19:11:26 10° NNW 19:16:14 24° W 19:20:58 10° SW visible
20 Apr 7.2 19:37:21 10° NW 19:40:24 14° WNW 19:43:25 10° WSW visible
